Home > Weather > Christchurch > Past weeks

Flag for New Zealand Weather for the Past 2 Weeks in Christchurch, New Zealand

Now
73 °F

Mild.


Feels Like: 76 °F
Forecast: 55 / 85 °F
Wind: 13 mph from Northeast

Location: Christchurch Airport

Current Time: Feb 14, 2016 at 3:35:01 PM

Latest Report: Feb 14, 2016 at 2:30 PM


Visibility: N/A

Pressure: 29.98 "Hg

Humidity: 61%

Dew point: 59 °F

Location of ChristchurchLocation

Historic Weather in Christchurch — Graph

°F

Christchurch Temperature Yesterday

Maximum temperature yesterday: 73 °F (at 4:00 PM)
Minimum temperature yesterday: 61 °F (at 4:30 AM)
Average temperature yesterday: 65 °F

High & Low Weather Summary for the Past Weeks

 TemperatureHumidityPressure
High88 °F (Feb 4, 2:00 PM)100% (Feb 2, 4:30 AM)30.21 "Hg (Feb 2, 4:30 AM)
Low48 °F (Feb 10, 7:00 AM)27% (Feb 4, 4:30 PM)29.68 "Hg (Feb 9, 11:30 AM)
Average63 °F78%29.97 "Hg
* Reported Jan 30 2:00 PM — Feb 14 2:00 PM, Christchurch, Weather by CustomWeather, © 2016

Note: Actual official high and low records may vary slightly from our data, if they occured in-between our weather recording intervals... More about our weather records

Advertising

Christchurch Weather History for the Previous 24 Hours

 ConditionsComfort  
Time TempWeatherWind HumidityBarometerVisibility
2:00 PM
Sun, Feb 14
73 °FMild.10 mph61%30.01 "HgN/A
1:30 PM73 °FMild.12 mph65%30.01 "HgN/A
1:00 PM72 °FMild.9 mph65%30.01 "HgN/A
12:30 PM73 °FMild.10 mph65%30.04 "HgN/A
12:00 PM70 °FPassing clouds.9 mph69%30.04 "HgN/A
11:30 AM70 °FScattered clouds.8 mph69%30.04 "HgN/A
10:30 AM68 °FPartly sunny.10 mph73%30.07 "HgN/A
10:00 AM66 °FPassing clouds.8 mph78%30.07 "HgN/A
9:30 AM64 °FMild.6 mph88%30.07 "HgN/A
9:00 AM63 °FPassing clouds.6 mph94%30.07 "HgN/A
8:30 AM59 °FPartly sunny.2 mph94%30.07 "HgN/A
8:00 AM55 °FScattered clouds.1 mph100%30.07 "HgN/A
7:30 AM54 °FPassing clouds.2 mph100%30.07 "HgN/A
7:00 AM52 °FDense fog.2 mph100%30.04 "Hg1 mi
6:30 AM52 °FFog.2 mph100%30.04 "Hg0 mi
6:00 AM54 °FFog.3 mph100%30.04 "Hg0 mi
5:30 AM54 °FFog.2 mph100%30.04 "Hg0 mi
5:00 AM55 °FFog.2 mph94%30.04 "Hg0 mi
4:30 AM55 °FCool.3 mph100%30.04 "Hg4 mi
4:00 AM57 °FCool.3 mph100%30.04 "HgN/A
3:30 AM61 °FCool.8 mph94%30.07 "HgN/A
3:00 AM61 °FCool.8 mph94%30.07 "HgN/A
2:30 AM63 °FMild.9 mph88%30.07 "HgN/A
2:00 AM63 °FMild.7 mph88%30.07 "HgN/A
1:30 AM61 °FCool.7 mph94%30.07 "HgN/A
1:00 AM61 °FCool.8 mph94%30.07 "HgN/A
12:30 AM63 °FMild.8 mph88%30.09 "HgN/A
12:00 AM63 °FMild.8 mph88%30.09 "HgN/A
11:30 PM
Sat, Feb 13
63 °FMild.8 mph88%30.09 "HgN/A
11:00 PM63 °FMild.7 mph88%30.09 "HgN/A
10:30 PM63 °FMild.9 mph88%30.09 "HgN/A
10:00 PM63 °FMild.8 mph88%30.09 "HgN/A
9:30 PM64 °FPassing clouds.9 mph83%30.09 "HgN/A
9:00 PM64 °FPassing clouds.10 mph83%30.09 "HgN/A
8:30 PM64 °FPartly sunny.12 mph83%30.07 "HgN/A
8:00 PM66 °FScattered clouds.10 mph78%30.07 "HgN/A
7:30 PM66 °FScattered clouds.13 mph73%30.07 "HgN/A
7:00 PM68 °FPartly sunny.14 mph69%30.07 "HgN/A
6:30 PM68 °FOvercast.14 mph69%30.07 "HgN/A
6:00 PM68 °FOvercast.14 mph73%30.07 "HgN/A
5:30 PM70 °FOvercast.12 mph69%30.07 "HgN/A
5:00 PM70 °FOvercast.12 mph64%30.07 "HgN/A
4:30 PM72 °FMostly cloudy.12 mph61%30.07 "HgN/A
4:00 PM73 °FPartly sunny.10 mph57%30.07 "HgN/A
3:30 PM72 °FOvercast.8 mph61%30.07 "HgN/A
3:00 PM70 °FOvercast.9 mph64%30.09 "HgN/A
Weather by CustomWeather, © 2016

See weather overviewHow to use our weather pages